Location: Newark
(48.6461°N, 4.3644°W)
Time: 18:08:03
(UTC+00:00)

Transit 4A - Pass Details

Date: 24 January 2020
Orbit: 872 x 973 km, 66.8° (Epoch: 26 February)

Event Time Altitude Azimuth Distance (km) Brightness Sun altitude
Rises 13:05:19 0° 322° (NW) 3,484 10.5 21.6°
Reaches altitude 10° 13:08:38 10° 340° (NNW) 2,536 9.8 21.5°
Maximum altitude 13:12:40 19° 24° (NNE) 1,978 9.2 21.4°
Drops below altitude 10° 13:16:41 10° 68° (ENE) 2,528 9.9 21.3°
Sets 13:19:58 0° 87° (E) 3,470 10.7 21.2°
